TimeMDT,TemperatureF,Dew PointF,Humidity,Sea Level PressureIn,VisibilityMPH,Wind Direction,Wind SpeedMPH,Gust SpeedMPH,PrecipitationIn,Events,Conditions,WindDirDegrees,DateUTC
12:15 AM,68.0,46.4,46,30.11,10.0,West,8.1,-,N/A,,Clear,270,2013-08-25 06:15:00
12:35 AM,66.2,46.4,49,30.11,10.0,WSW,5.8,-,N/A,,Partly Cloudy,250,2013-08-25 06:35:00
12:55 AM,66.2,44.6,46,30.10,10.0,West,5.8,-,N/A,,Partly Cloudy,270,2013-08-25 06:55:00
1:15 AM,66.2,44.6,46,30.10,10.0,West,4.6,-,N/A,,Clear,280,2013-08-25 07:15:00
1:35 AM,66.2,46.4,49,30.10,10.0,WSW,11.5,17.3,N/A,,Clear,250,2013-08-25 07:35:00
1:55 AM,66.2,44.6,46,30.09,10.0,SW,3.5,-,N/A,,Clear,230,2013-08-25 07:55:00
2:15 AM,69.8,44.6,40,30.09,10.0,WSW,10.4,20.7,N/A,,Clear,250,2013-08-25 08:15:00
2:35 AM,68.0,44.6,43,30.09,10.0,SSW,5.8,-,N/A,,Clear,210,2013-08-25 08:35:00
2:55 AM,66.2,46.4,49,30.09,10.0,West,4.6,-,N/A,,Clear,260,2013-08-25 08:55:00
3:15 AM,66.2,46.4,49,30.10,10.0,Calm,Calm,-,N/A,,Partly Cloudy,0,2013-08-25 09:15:00
3:35 AM,66.2,46.4,49,30.10,10.0,South,3.5,-,N/A,,Clear,190,2013-08-25 09:35:00
3:55 AM,66.2,46.4,49,30.10,10.0,NE,3.5,-,N/A,,Scattered Clouds,40,2013-08-25 09:55:00
4:15 AM,66.2,46.4,49,30.10,10.0,SSW,3.5,-,N/A,,Partly Cloudy,200,2013-08-25 10:15:00
4:35 AM,66.2,46.4,49,30.10,10.0,Calm,Calm,-,N/A,,Clear,0,2013-08-25 10:35:00
4:55 AM,66.2,46.4,49,30.10,10.0,SW,9.2,-,N/A,,Mostly Cloudy,230,2013-08-25 10:55:00
5:15 AM,66.2,46.4,49,30.11,10.0,SW,8.1,-,N/A,,Scattered Clouds,220,2013-08-25 11:15:00
5:35 AM,64.4,46.4,52,30.11,10.0,SSW,10.4,-,N/A,,Clear,210,2013-08-25 11:35:00
5:55 AM,62.6,46.4,55,30.11,10.0,SW,11.5,-,N/A,,Clear,220,2013-08-25 11:55:00
6:15 AM,64.4,46.4,52,30.11,10.0,SW,6.9,-,N/A,,Clear,230,2013-08-25 12:15:00
6:35 AM,66.2,46.4,49,30.12,10.0,SSW,12.7,-,N/A,,Clear,210,2013-08-25 12:35:00
7:15 AM,64.4,46.4,52,30.12,10.0,SW,9.2,-,N/A,,Mostly Cloudy,230,2013-08-25 13:15:00
7:55 AM,66.2,46.4,49,30.13,10.0,SW,6.9,-,N/A,,Overcast,220,2013-08-25 13:55:00
8:15 AM,66.2,48.2,52,30.13,10.0,SSW,10.4,-,N/A,,Mostly Cloudy,210,2013-08-25 14:15:00
8:35 AM,66.2,48.2,52,30.14,10.0,SW,9.2,-,N/A,,Partly Cloudy,220,2013-08-25 14:35:00
8:55 AM,66.2,50.0,56,30.14,10.0,SSW,6.9,-,N/A,,Partly Cloudy,200,2013-08-25 14:55:00
9:15 AM,66.2,51.8,60,30.15,10.0,SW,3.5,-,N/A,,Clear,230,2013-08-25 15:15:00
9:35 AM,69.8,50.0,49,30.14,10.0,SW,6.9,-,N/A,,Clear,230,2013-08-25 15:35:00
9:56 AM,71.6,48.2,43,30.14,10.0,SSW,8.1,-,N/A,,Clear,200,2013-08-25 15:56:00
10:15 AM,73.4,46.4,38,30.14,10.0,North,-9999.0,-,N/A,,Clear,0,2013-08-25 16:15:00
10:35 AM,75.2,48.2,38,30.14,10.0,West,4.6,-,N/A,,Clear,260,2013-08-25 16:35:00
10:55 AM,78.8,46.4,32,30.13,10.0,SW,11.5,-,N/A,,Clear,230,2013-08-25 16:55:00
11:15 AM,78.8,46.4,32,30.13,10.0,West,11.5,16.1,N/A,,Clear,270,2013-08-25 17:15:00
11:55 AM,80.6,46.4,30,30.13,10.0,WSW,6.9,16.1,N/A,,Clear,240,2013-08-25 17:55:00
12:15 PM,80.6,42.8,26,30.12,10.0,West,4.6,-,N/A,,Clear,260,2013-08-25 18:15:00
12:35 PM,82.4,44.6,26,30.11,10.0,SSW,9.2,-,N/A,,Clear,200,2013-08-25 18:35:00
12:55 PM,82.4,44.6,26,30.10,10.0,SSW,5.8,-,N/A,,Clear,210,2013-08-25 18:55:00
1:15 PM,82.4,42.8,25,30.10,8.0,Calm,Calm,-,N/A,,Clear,0,2013-08-25 19:15:00
1:35 PM,82.4,44.6,26,30.09,10.0,NW,5.8,-,N/A,,Clear,320,2013-08-25 19:35:00
1:55 PM,84.2,42.8,23,30.09,8.0,East,12.7,-,N/A,,Clear,80,2013-08-25 19:55:00
2:15 PM,84.2,42.8,23,30.09,4.0,East,8.1,-,N/A,,Clear,100,2013-08-25 20:15:00
2:35 PM,84.2,39.2,20,30.08,9.0,East,11.5,-,N/A,,Clear,80,2013-08-25 20:35:00
2:55 PM,84.2,42.8,23,30.08,10.0,East,11.5,18.4,N/A,,Scattered Clouds,90,2013-08-25 20:55:00
3:15 PM,86.0,41.0,20,30.07,8.0,East,9.2,-,N/A,,Partly Cloudy,90,2013-08-25 21:15:00
3:35 PM,84.2,39.2,20,30.07,10.0,East,6.9,-,N/A,,Clear,90,2013-08-25 21:35:00
4:15 PM,84.2,39.2,20,30.07,10.0,SE,8.1,-,N/A,,Clear,130,2013-08-25 22:15:00
4:55 PM,84.2,39.2,20,30.06,10.0,South,12.7,18.4,N/A,,Clear,180,2013-08-25 22:55:00
5:15 PM,84.2,39.2,20,30.06,10.0,SSE,9.2,16.1,N/A,,Clear,150,2013-08-25 23:15:00
5:35 PM,84.2,39.2,20,30.06,10.0,SW,6.9,-,N/A,,Mostly Cloudy,220,2013-08-25 23:35:00
5:55 PM,82.4,42.8,25,30.06,10.0,SW,5.8,-,N/A,,Mostly Cloudy,220,2013-08-25 23:55:00
6:15 PM,82.4,41.0,23,30.06,10.0,Calm,Calm,-,N/A,,Scattered Clouds,0,2013-08-26 00:15:00
6:35 PM,80.6,44.6,28,30.06,10.0,Calm,Calm,-,N/A,,Clear,0,2013-08-26 00:35:00
6:55 PM,82.4,42.8,25,30.05,9.0,SE,5.8,-,N/A,,Clear,130,2013-08-26 00:55:00
7:15 PM,80.6,42.8,26,30.05,10.0,SE,5.8,-,N/A,,Scattered Clouds,130,2013-08-26 01:15:00
7:35 PM,80.6,39.2,23,30.05,10.0,East,5.8,-,N/A,,Scattered Clouds,100,2013-08-26 01:35:00
8:15 PM,77.0,44.6,32,30.06,10.0,SW,12.7,18.4,N/A,,Mostly Cloudy,220,2013-08-26 02:15:00
8:35 PM,77.0,44.6,32,30.06,10.0,SW,8.1,19.6,N/A,,Mostly Cloudy,230,2013-08-26 02:35:00
8:55 PM,75.2,46.4,36,30.06,10.0,WNW,5.8,-,N/A,,Partly Cloudy,300,2013-08-26 02:55:00
9:15 PM,73.4,44.6,36,30.07,10.0,SW,4.6,-,N/A,,Clear,230,2013-08-26 03:15:00
9:35 PM,73.4,46.4,38,30.07,10.0,SW,6.9,-,N/A,,Clear,220,2013-08-26 03:35:00
9:55 PM,71.6,48.2,43,30.07,10.0,SW,8.1,-,N/A,,Clear,230,2013-08-26 03:55:00
10:35 PM,69.8,48.2,46,30.07,10.0,SW,11.5,-,N/A,,Clear,230,2013-08-26 04:35:00
10:55 PM,69.8,50.0,49,30.06,10.0,WSW,11.5,-,N/A,,Clear,240,2013-08-26 04:55:00
11:35 PM,69.8,48.2,46,30.06,10.0,SW,11.5,-,N/A,,Clear,230,2013-08-26 05:35:00
11:55 PM,69.8,48.2,46,30.06,10.0,SW,6.9,-,N/A,,Clear,230,2013-08-26 05:55:00